| time (UTC) | temp C | wind direction | speed KPH | gust KPH | rain 1hr cm | rain 24hr cm | rain mn cm | humidity % | barometer mb |
| 20260507132552 | 15 | 126 | 0.0 | 6.4 | 0.00 | 0.00 | 0.00 | 48 | 1013.2 |
| 20260507132051 | 15 | 86 | 0.0 | 6.4 | 0.00 | 0.00 | 0.00 | 49 | 1013.2 |
| 20260507131552 | 15 | 30 | 0.0 | 4.8 | 0.00 | 0.00 | 0.00 | 51 | 1013.3 |
| 20260507131049 | 15 | 68 | 0.0 | 4.8 | 0.00 | 0.00 | 0.00 | 52 | 1013.3 |
| 20260507130548 | 14 | 57 | 0.0 | 8.0 | 0.00 | 0.00 | 0.00 | 52 | 1013.3 |
| 20260507130101 | 13 | 80 | 0.0 | 8.0 | 0.00 | 0.00 | 0.00 | 53 | 1013.4 |
| 20260507125548 | 13 | 43 | 0.0 | 4.8 | 0.00 | 0.00 | 0.00 | 52 | 1013.4 |
| 20260507125047 | 14 | 48 | 0.0 | 3.2 | 0.00 | 0.00 | 0.00 | 52 | 1013.4 |
| 20260507124555 | 14 | 163 | 0.0 | 3.2 | 0.00 | 0.00 | 0.00 | 52 | 1013.5 |
| 20260507124048 | 14 | 161 | 0.0 | 4.8 | 0.00 | 0.00 | 0.00 | 52 | 1013.5 |
| 20260507123548 | 14 | 156 | 0.0 | 4.8 | 0.00 | 0.00 | 0.00 | 53 | 1013.6 |
| 20260507123047 | 14 | 146 | 0.0 | 4.8 | 0.00 | 0.00 | 0.00 | 52 | 1013.6 |
| 20260507122546 | 14 | 172 | 0.0 | 0.0 | 0.00 | 0.00 | 0.00 | 52 | 1013.6 |
| 20260507122048 | 14 | 219 | 0.0 | 4.8 | 0.00 | 0.00 | 0.00 | 52 | 1013.6 |
| 20260507121552 | 15 | 219 | 0.0 | 4.8 | 0.00 | 0.00 | 0.00 | 51 | 1013.6 |
| 20260507121045 | 15 | 132 | 0.0 | 4.8 | 0.00 | 0.00 | 0.00 | 52 | 1013.6 |
| 20260507120545 | 15 | 161 | 0.0 | 3.2 | 0.00 | 0.00 | 0.00 | 53 | 1013.7 |
| 20260507120045 | 15 | 146 | 0.0 | 4.8 | 0.00 | 0.00 | 0.00 | 52 | 1013.7 |
| 20260507115544 | 15 | 192 | 0.0 | 4.8 | 0.00 | 0.00 | 0.00 | 53 | 1013.7 |
| 20260507115042 | 15 | 260 | 0.0 | 1.6 | 0.00 | 0.00 | 0.00 | 52 | 1013.7 |
| 20260507114541 | 15 | 64 | 0.0 | 1.6 | 0.00 | 0.00 | 0.00 | 53 | 1013.8 |
| 20260507114040 | 14 | 153 | 0.0 | 1.6 | 0.00 | 0.00 | 0.00 | 55 | 1013.7 |
| 20260507113542 | 14 | 60 | 0.0 | 8.0 | 0.00 | 0.00 | 0.00 | 54 | 1013.8 |
| 20260507113042 | 14 | 159 | 0.0 | 8.0 | 0.00 | 0.00 | 0.00 | 53 | 1013.8 |
| 20260507112542 | 14 | 159 | 0.0 | 1.6 | 0.00 | 0.00 | 0.00 | 54 | 1013.8 |
| 20260507112040 | 14 | 243 | 0.0 | 0.0 | 0.00 | 0.00 | 0.00 | 56 | 1013.9 |
| 20260507111536 | 13 | 246 | 0.0 | 3.2 | 0.00 | 0.00 | 0.00 | 53 | 1013.9 |
| 20260507111034 | 13 | 70 | 0.0 | 3.2 | 0.00 | 0.00 | 0.00 | 54 | 1014.0 |
| 20260507110533 | 13 | 111 | 0.0 | 3.2 | 0.00 | 0.00 | 0.00 | 56 | 1014.0 |
| 20260507110032 | 13 | 52 | 0.0 | 3.2 | 0.00 | 0.00 | 0.00 | 57 | 1014.1 |
| 20260507105531 | 13 | 36 | 0.0 | 9.7 | 0.00 | 0.00 | 0.00 | 58 | 1014.0 |
| 20260507105030 | 13 | 81 | 0.0 | 3.2 | 0.00 | 0.00 | 0.00 | 52 | 1014.0 |
| 20260507104531 | 13 | 124 | 0.0 | 3.2 | 0.00 | 0.00 | 0.00 | 55 | 1014.1 |
| 20260507104029 | 13 | 130 | 0.0 | 3.2 | 0.00 | 0.00 | 0.00 | 56 | 1014.1 |
| 20260507103532 | 13 | 140 | 0.0 | 3.2 | 0.00 | 0.00 | 0.00 | 58 | 1014.1 |
| 20260507103031 | 13 | 28 | 0.0 | 3.2 | 0.00 | 0.00 | 0.00 | 60 | 1014.2 |
| 20260507102526 | 12 | 132 | 0.0 | 1.6 | 0.00 | 0.00 | 0.00 | 60 | 1014.1 |
| 20260507102024 | 12 | 108 | 0.0 | 3.2 | 0.00 | 0.00 | 0.00 | 61 | 1014.2 |
| 20260507101523 | 12 | 55 | 0.0 | 4.8 | 0.00 | 0.00 | 0.00 | 66 | 1014.2 |
| 20260507101024 | 12 | 165 | 0.0 | 4.8 | 0.00 | 0.00 | 0.00 | 65 | 1014.2 |
| 20260507100520 | 12 | 178 | 0.0 | 4.8 | 0.00 | 0.00 | 0.00 | 65 | 1014.2 |
| 20260507100019 | 12 | 154 | 0.0 | 11.3 | 0.00 | 0.00 | 0.00 | 67 | 1014.2 |
| 20260507095519 | 12 | 53 | 0.0 | 11.3 | 0.00 | 0.00 | 0.00 | 69 | 1014.3 |
| 20260507095018 | 12 | 141 | 0.0 | 6.4 | 0.00 | 0.00 | 0.00 | 71 | 1014.2 |
| 20260507094517 | 11 | 241 | 0.0 | 3.2 | 0.00 | 0.00 | 0.00 | 74 | 1014.2 |
| 20260507094015 | 11 | 162 | 0.0 | 4.8 | 0.00 | 0.00 | 0.00 | 74 | 1014.3 |
| 20260507093517 | 11 | 150 | 0.0 | 6.4 | 0.00 | 0.00 | 0.00 | 73 | 1014.3 |
| 20260507093015 | 11 | 146 | 0.0 | 6.4 | 0.00 | 0.00 | 0.00 | 73 | 1014.3 |
| 20260507092511 | 11 | 227 | 0.0 | 4.8 | 0.00 | 0.00 | 0.00 | 75 | 1014.3 |
| 20260507092011 | 10 | 209 | 0.0 | 8.0 | 0.00 | 0.00 | 0.00 | 76 | 1014.3 |
| 20260507091510 | 10 | 147 | 0.0 | 4.8 | 0.00 | 0.00 | 0.00 | 77 | 1014.3 |
| 20260507091009 | 10 | 215 | 0.0 | 4.8 | 0.00 | 0.00 | 0.00 | 77 | 1014.4 |
| 20260507090507 | 10 | 194 | 0.0 | 4.8 | 0.00 | 0.00 | 0.00 | 78 | 1014.3 |
| 20260507090006 | 10 | 188 | 0.0 | 3.2 | 0.00 | 0.00 | 0.00 | 80 | 1014.3 |
| 20260507085505 | 10 | 25 | 0.0 | 8.0 | 0.00 | 0.00 | 0.00 | 80 | 1014.3 |
| 20260507085007 | 10 | 275 | 1.6 | 8.0 | 0.00 | 0.00 | 0.00 | 81 | 1014.4 |
| 20260507084510 | 9 | 130 | 0.0 | 6.4 | 0.00 | 0.00 | 0.00 | 82 | 1014.4 |
| 20260507084001 | 9 | 140 | 0.0 | 6.4 | 0.00 | 0.00 | 0.00 | 84 | 1014.5 |
| 20260507083601 | 8 | 271 | 0.0 | 4.8 | 0.00 | 0.00 | 0.00 | 85 | 1014.4 |
| 20260507083058 | 8 | 269 | 0.0 | 6.4 | 0.00 | 0.00 | 0.00 | 85 | 1014.4 |
| 20260507082556 | 8 | 239 | 1.6 | 6.4 | 0.00 | 0.00 | 0.00 | 86 | 1014.4 |
| 20260507082055 | 8 | 142 | 0.0 | 3.2 | 0.00 | 0.00 | 0.00 | 88 | 1014.4 |
| 20260507081558 | 8 | 140 | 0.0 | 4.8 | 0.00 | 0.00 | 0.00 | 88 | 1014.4 |
| 20260507081053 | 7 | 140 | 0.0 | 6.4 | 0.00 | 0.00 | 0.00 | 89 | 1014.4 |
| 20260507080553 | 7 | 144 | 0.0 | 6.4 | 0.00 | 0.00 | 0.00 | 90 | 1014.4 |
| 20260507080054 | 7 | 143 | 1.6 | 6.4 | 0.00 | 0.00 | 0.00 | 90 | 1014.3 |
| 20260507075550 | 7 | 154 | 1.6 | 6.4 | 0.00 | 0.00 | 0.00 | 91 | 1014.4 |
| 20260507075049 | 7 | 155 | 1.6 | 6.4 | 0.00 | 0.00 | 0.00 | 92 | 1014.4 |
| 20260507074548 | 7 | 59 | 0.0 | 4.8 | 0.00 | 0.00 | 0.00 | 94 | 1014.4 |
| 20260507074046 | 6 | 180 | 0.0 | 4.8 | 0.00 | 0.00 | 0.00 | 94 | 1014.3 |
| 20260507073546 | 6 | 205 | 0.0 | 3.2 | 0.00 | 0.00 | 0.00 | 94 | 1014.3 |
| 20260507073045 | 6 | 200 | 0.0 | 0.0 | 0.00 | 0.00 | 0.00 | 94 | 1014.3 |
| 20260507072544 | 6 | 200 | 0.0 | 0.0 | 0.00 | 0.00 | 0.00 | 94 | 1014.3 |
| 20260507072043 | 6 | 200 | 0.0 | 1.6 | 0.00 | 0.00 | 0.00 | 93 | 1014.3 |
| 20260507071545 | 6 | 200 | 0.0 | 3.2 | 0.00 | 0.00 | 0.00 | 94 | 1014.2 |
| 20260507071042 | 6 | 200 | 0.0 | 3.2 | 0.00 | 0.00 | 0.00 | 94 | 1014.3 |
| 20260507070541 | 6 | 202 | 0.0 | 4.8 | 0.00 | 0.00 | 0.00 | 94 | 1014.2 |
| 20260507070059 | 6 | 202 | 0.0 | 4.8 | 0.00 | 0.00 | 0.00 | 94 | 1014.2 |
| 20260507065540 | 6 | 143 | 0.0 | 4.8 | 0.00 | 0.00 | 0.00 | 94 | 1014.2 |
| 20260507065038 | 6 | 144 | 0.0 | 4.8 | 0.00 | 0.00 | 0.00 | 94 | 1014.2 |
| 20260507064548 | 6 | 143 | 0.0 | 3.2 | 0.00 | 0.00 | 0.00 | 94 | 1014.1 |
| 20260507064037 | 6 | 142 | 0.0 | 4.8 | 0.00 | 0.00 | 0.00 | 94 | 1014.2 |
| 20260507063537 | 5 | 142 | 1.6 | 4.8 | 0.00 | 0.00 | 0.00 | 94 | 1014.2 |
| 20260507063037 | 5 | 154 | 0.0 | 3.2 | 0.00 | 0.00 | 0.00 | 94 | 1014.1 |
| 20260507062535 | 5 | 165 | 0.0 | 4.8 | 0.00 | 0.00 | 0.00 | 94 | 1014.1 |
| 20260507062035 | 5 | 165 | 1.6 | 4.8 | 0.00 | 0.00 | 0.00 | 94 | 1014.1 |
| 20260507061535 | 5 | 154 | 1.6 | 4.8 | 0.00 | 0.00 | 0.00 | 94 | 1014.0 |
| 20260507061033 | 5 | 150 | 0.0 | 3.2 | 0.00 | 0.00 | 0.00 | 94 | 1014.0 |
| 20260507060533 | 5 | 150 | 0.0 | 3.2 | 0.00 | 0.00 | 0.00 | 95 | 1013.9 |
| 20260507060034 | 5 | 140 | 0.0 | 1.6 | 0.00 | 0.00 | 0.00 | 95 | 1013.9 |
| 20260507055532 | 5 | 140 | 0.0 | 1.6 | 0.00 | 0.00 | 0.00 | 95 | 1013.9 |
| 20260507055031 | 5 | 140 | 0.0 | 3.2 | 0.00 | 0.00 | 0.00 | 95 | 1013.9 |
| 20260507054532 | 5 | 140 | 0.0 | 3.2 | 0.00 | 0.00 | 0.00 | 95 | 1013.8 |
| 20260507054031 | 5 | 140 | 0.0 | 3.2 | 0.00 | 0.00 | 0.00 | 95 | 1013.8 |
| 20260507053528 | 4 | 140 | 0.0 | 3.2 | 0.00 | 0.00 | 0.00 | 95 | 1013.8 |
| 20260507053027 | 4 | 140 | 0.0 | 3.2 | 0.00 | 0.00 | 0.00 | 95 | 1013.9 |
| 20260507052526 | 3 | 118 | 0.0 | 3.2 | 0.00 | 0.00 | 0.00 | 95 | 1013.9 |
| 20260507052026 | 3 | 116 | 0.0 | 3.2 | 0.00 | 0.00 | 0.00 | 95 | 1013.9 |
| 20260507051525 | 3 | 58 | 0.0 | 0.0 | 0.00 | 0.00 | 0.00 | 95 | 1013.9 |
| 20260507051025 | 3 | 58 | 0.0 | 0.0 | 0.00 | 0.00 | 0.00 | 94 | 1013.8 |
| 20260507050523 | 3 | 58 | 0.0 | 0.0 | 0.00 | 0.00 | 0.00 | 94 | 1013.8 |
| 20260507050038 | 3 | 58 | 0.0 | 0.0 | 0.00 | 0.00 | 0.00 | 94 | 1013.8 |
| 20260507045523 | 3 | 58 | 0.0 | 0.0 | 0.00 | 0.00 | 0.00 | 93 | 1013.7 |
| 20260507045024 | 3 | 58 | 0.0 | 0.0 | 0.00 | 0.00 | 0.00 | 94 | 1013.7 |
| 20260507044523 | 3 | 58 | 0.0 | 0.0 | 0.00 | 0.00 | 0.00 | 93 | 1013.6 |
| 20260507044021 | 3 | 58 | 0.0 | 0.0 | 0.00 | 0.00 | 0.00 | 93 | 1013.6 |
| 20260507043521 | 3 | 58 | 0.0 | 0.0 | 0.00 | 0.00 | 0.00 | 93 | 1013.6 |
| 20260507043021 | 3 | 58 | 0.0 | 0.0 | 0.00 | 0.00 | 0.00 | 93 | 1013.6 |
| 20260507042520 | 3 | 58 | 0.0 | 0.0 | 0.00 | 0.00 | 0.00 | 93 | 1013.6 |
| 20260507042020 | 3 | 58 | 0.0 | 0.0 | 0.00 | 0.00 | 0.00 | 93 | 1013.6 |
| 20260507041520 | 3 | 58 | 0.0 | 0.0 | 0.00 | 0.00 | 0.00 | 93 | 1013.6 |
| 20260507041020 | 3 | 58 | 0.0 | 0.0 | 0.00 | 0.00 | 0.00 | 93 | 1013.6 |
| 20260507040519 | 3 | 58 | 0.0 | 0.0 | 0.00 | 0.00 | 0.00 | 93 | 1013.5 |
| 20260507040019 | 3 | 58 | 0.0 | 0.0 | 0.00 | 0.00 | 0.00 | 93 | 1013.5 |
| 20260507035519 | 3 | 58 | 0.0 | 0.0 | 0.00 | 0.00 | 0.00 | 93 | 1013.5 |
| 20260507035018 | 3 | 58 | 0.0 | 0.0 | 0.00 | 0.00 | 0.00 | 92 | 1013.5 |
| 20260507034521 | 3 | 58 | 0.0 | 0.0 | 0.00 | 0.00 | 0.00 | 92 | 1013.5 |
| 20260507034017 | 3 | 58 | 0.0 | 0.0 | 0.00 | 0.00 | 0.00 | 92 | 1013.6 |
| 20260507033517 | 3 | 58 | 0.0 | 0.0 | 0.00 | 0.00 | 0.00 | 93 | 1013.6 |
| 20260507033018 | 3 | 58 | 0.0 | 0.0 | 0.00 | 0.00 | 0.00 | 93 | 1013.5 |
| 20260507032515 | 3 | 59 | 0.0 | 0.0 | 0.00 | 0.00 | 0.00 | 94 | 1013.5 |
| 20260507032015 | 3 | 59 | 0.0 | 0.0 | 0.00 | 0.00 | 0.00 | 94 | 1013.5 |
| 20260507031516 | 3 | 59 | 0.0 | 0.0 | 0.00 | 0.00 | 0.00 | 94 | 1013.5 |
| 20260507031020 | 3 | 59 | 0.0 | 0.0 | 0.00 | 0.00 | 0.00 | 93 | 1013.6 |
| 20260507030515 | 3 | 59 | 0.0 | 0.0 | 0.00 | 0.00 | 0.00 | 93 | 1013.5 |
| 20260507030017 | 3 | 59 | 0.0 | 0.0 | 0.00 | 0.00 | 0.00 | 93 | 1013.5 |
| 20260507025514 | 3 | 59 | 0.0 | 0.0 | 0.00 | 0.00 | 0.00 | 93 | 1013.5 |
| 20260507025015 | 3 | 59 | 0.0 | 0.0 | 0.00 | 0.00 | 0.00 | 92 | 1013.6 |
| 20260507024515 | 3 | 59 | 0.0 | 0.0 | 0.00 | 0.00 | 0.00 | 92 | 1013.4 |
| 20260507024014 | 3 | 59 | 0.0 | 0.0 | 0.00 | 0.00 | 0.00 | 92 | 1013.5 |
| 20260507023515 | 3 | 59 | 0.0 | 0.0 | 0.00 | 0.00 | 0.00 | 92 | 1013.5 |
| 20260507023012 | 3 | 59 | 0.0 | 0.0 | 0.00 | 0.00 | 0.00 | 92 | 1013.4 |
| 20260507022512 | 3 | 59 | 0.0 | 0.0 | 0.00 | 0.00 | 0.00 | 92 | 1013.5 |
| 20260507022013 | 3 | 59 | 0.0 | 0.0 | 0.00 | 0.00 | 0.00 | 92 | 1013.4 |
| 20260507021511 | 3 | 59 | 0.0 | 0.0 | 0.00 | 0.00 | 0.00 | 92 | 1013.4 |
| 20260507021011 | 3 | 59 | 0.0 | 0.0 | 0.00 | 0.00 | 0.00 | 92 | 1013.5 |
| 20260507020511 | 3 | 59 | 0.0 | 0.0 | 0.00 | 0.00 | 0.00 | 92 | 1013.5 |
| 20260507020011 | 3 | 59 | 0.0 | 0.0 | 0.00 | 0.00 | 0.00 | 92 | 1013.5 |
| 20260507015510 | 3 | 59 | 0.0 | 1.6 | 0.00 | 0.00 | 0.00 | 92 | 1013.5 |
| 20260507015014 | 3 | 59 | 0.0 | 1.6 | 0.00 | 0.00 | 0.00 | 92 | 1013.5 |
| 20260507014510 | 3 | 59 | 0.0 | 0.0 | 0.00 | 0.00 | 0.00 | 91 | 1013.5 |
| 20260507014009 | 3 | 59 | 0.0 | 0.0 | 0.00 | 0.00 | 0.00 | 91 | 1013.6 |
| 20260507013508 | 3 | 59 | 0.0 | 0.0 | 0.00 | 0.00 | 0.00 | 91 | 1013.5 |
| 20260507013007 | 3 | 59 | 0.0 | 0.0 | 0.00 | 0.00 | 0.00 | 91 | 1013.6 |
| 20260507012507 | 3 | 59 | 0.0 | 0.0 | 0.00 | 0.00 | 0.00 | 91 | 1013.5 |
| 20260507012006 | 4 | 59 | 0.0 | 0.0 | 0.00 | 0.00 | 0.00 | 91 | 1013.6 |
| 20260507011506 | 4 | 59 | 0.0 | 0.0 | 0.00 | 0.00 | 0.00 | 91 | 1013.6 |
| 20260507011005 | 4 | 59 | 0.0 | 0.0 | 0.00 | 0.00 | 0.00 | 91 | 1013.7 |
| 20260507010509 | 4 | 59 | 0.0 | 0.0 | 0.00 | 0.00 | 0.00 | 91 | 1013.7 |
| 20260507010007 | 4 | 59 | 0.0 | 0.0 | 0.00 | 0.00 | 0.00 | 91 | 1013.6 |
| 20260507005505 | 4 | 59 | 0.0 | 0.0 | 0.00 | 0.00 | 0.00 | 91 | 1013.6 |
| 20260507005003 | 4 | 59 | 0.0 | 0.0 | 0.00 | 0.00 | 0.00 | 90 | 1013.6 |
| 20260507004504 | 4 | 59 | 0.0 | 0.0 | 0.00 | 0.00 | 0.00 | 90 | 1013.6 |
| 20260507004003 | 4 | 59 | 0.0 | 0.0 | 0.00 | 0.00 | 0.00 | 90 | 1013.7 |
| 20260507003501 | 5 | 59 | 0.0 | 0.0 | 0.00 | 0.00 | 0.00 | 90 | 1013.6 |
| 20260507003001 | 5 | 59 | 0.0 | 0.0 | 0.00 | 0.00 | 0.00 | 91 | 1013.7 |
| 20260507002501 | 5 | 59 | 0.0 | 3.2 | 0.00 | 0.00 | 0.00 | 90 | 1013.7 |
| 20260507002002 | 5 | 59 | 0.0 | 3.2 | 0.00 | 0.00 | 0.00 | 91 | 1013.7 |
| 20260507001500 | 5 | 60 | 0.0 | 3.2 | 0.00 | 0.00 | 0.00 | 91 | 1013.7 |
| 20260507001103 | 5 | 61 | 0.0 | 4.8 | 0.00 | 0.00 | 0.00 | 91 | 1013.8 |
| 20260507000603 | 5 | 40 | 1.6 | 4.8 | 0.00 | 0.00 | 0.00 | 91 | 1013.9 |
| 20260507000124 | 5 | 47 | 0.0 | 3.2 | 0.00 | 0.00 | 0.00 | 91 | 1013.9 |
| 20260506235600 | 5 | 60 | 0.0 | 0.0 | 0.00 | 0.00 | 0.00 | 91 | 1013.8 |
| 20260506235102 | 5 | 60 | 0.0 | 3.2 | 0.00 | 0.00 | 0.00 | 91 | 1013.7 |
| 20260506234621 | 5 | 45 | 0.0 | 6.4 | 0.00 | 0.00 | 0.00 | 91 | 1013.8 |
| 20260506234058 | 5 | 53 | 0.0 | 4.8 | 0.00 | 0.00 | 0.00 | 91 | 1013.7 |
| 20260506233559 | 5 | 55 | 0.0 | 4.8 | 0.00 | 0.00 | 0.00 | 91 | 1013.7 |
| 20260506233056 | 5 | 77 | 0.0 | 0.0 | 0.00 | 0.00 | 0.00 | 90 | 1013.7 |
| 20260506232556 | 5 | 77 | 0.0 | 0.0 | 0.00 | 0.00 | 0.00 | 90 | 1013.7 |
| 20260506232055 | 5 | 77 | 0.0 | 0.0 | 0.00 | 0.00 | 0.00 | 89 | 1013.7 |
| 20260506231555 | 5 | 77 | 0.0 | 0.0 | 0.00 | 0.00 | 0.00 | 89 | 1013.7 |
| 20260506231055 | 5 | 77 | 0.0 | 0.0 | 0.00 | 0.00 | 0.00 | 89 | 1013.7 |
| 20260506230553 | 5 | 77 | 0.0 | 0.0 | 0.00 | 0.00 | 0.00 | 89 | 1013.6 |
| 20260506225553 | 5 | 79 | 0.0 | 0.0 | 0.00 | 0.00 | 0.00 | 89 | 1013.6 |
| 20260506225053 | 5 | 80 | 0.0 | 1.6 | 0.00 | 0.00 | 0.00 | 89 | 1013.6 |
| 20260506224553 | 5 | 85 | 0.0 | 0.0 | 0.00 | 0.00 | 0.00 | 88 | 1013.6 |
| 20260506224051 | 5 | 85 | 0.0 | 0.0 | 0.00 | 0.00 | 0.00 | 88 | 1013.6 |
| 20260506223551 | 5 | 85 | 0.0 | 0.0 | 0.00 | 0.00 | 0.00 | 88 | 1013.6 |
| 20260506223051 | 5 | 85 | 0.0 | 0.0 | 0.00 | 0.00 | 0.00 | 88 | 1013.6 |
| 20260506222554 | 5 | 85 | 0.0 | 0.0 | 0.00 | 0.00 | 0.00 | 88 | 1013.5 |
| 20260506222049 | 5 | 85 | 0.0 | 0.0 | 0.00 | 0.00 | 0.00 | 88 | 1013.6 |
| 20260506221556 | 5 | 90 | 0.0 | 0.0 | 0.00 | 0.00 | 0.00 | 87 | 1013.5 |
| 20260506221047 | 5 | 90 | 0.0 | 0.0 | 0.00 | 0.00 | 0.00 | 87 | 1013.5 |
| 20260506220547 | 5 | 90 | 0.0 | 0.0 | 0.00 | 0.00 | 0.00 | 87 | 1013.4 |
| 20260506220048 | 6 | 90 | 0.0 | 0.0 | 0.00 | 0.00 | 0.00 | 87 | 1013.4 |
| 20260506215546 | 6 | 91 | 0.0 | 3.2 | 0.00 | 0.00 | 0.00 | 88 | 1013.4 |
| 20260506215046 | 6 | 57 | 0.0 | 4.8 | 0.00 | 0.00 | 0.00 | 87 | 1013.3 |
| 20260506214546 | 6 | 43 | 1.6 | 4.8 | 0.00 | 0.00 | 0.00 | 87 | 1013.4 |
| 20260506214046 | 6 | 45 | 0.0 | 4.8 | 0.00 | 0.00 | 0.00 | 87 | 1013.4 |
| 20260506213548 | 6 | 59 | 1.6 | 6.4 | 0.00 | 0.00 | 0.00 | 87 | 1013.4 |
| 20260506213053 | 6 | 57 | 3.2 | 6.4 | 0.00 | 0.00 | 0.00 | 87 | 1013.4 |
| 20260506212545 | 6 | 55 | 1.6 | 6.4 | 0.00 | 0.00 | 0.00 | 86 | 1013.4 |
| 20260506212044 | 6 | 40 | 1.6 | 6.4 | 0.00 | 0.00 | 0.00 | 86 | 1013.4 |
| 20260506211551 | 6 | 57 | 1.6 | 6.4 | 0.00 | 0.00 | 0.00 | 86 | 1013.3 |
| 20260506211043 | 6 | 43 | 0.0 | 4.8 | 0.00 | 0.00 | 0.00 | 86 | 1013.3 |
| 20260506210546 | 6 | 51 | 1.6 | 4.8 | 0.00 | 0.00 | 0.00 | 85 | 1013.2 |
| 20260506210047 | 6 | 74 | 1.6 | 6.4 | 0.00 | 0.00 | 0.00 | 85 | 1013.2 |
| 20260506205543 | 6 | 70 | 1.6 | 6.4 | 0.00 | 0.00 | 0.00 | 85 | 1013.1 |
| 20260506205041 | 6 | 58 | 3.2 | 6.4 | 0.00 | 0.00 | 0.00 | 85 | 1013.1 |
| 20260506204541 | 6 | 65 | 3.2 | 6.4 | 0.00 | 0.00 | 0.00 | 85 | 1013.1 |
| 20260506204040 | 6 | 75 | 3.2 | 9.7 | 0.00 | 0.00 | 0.00 | 85 | 1013.0 |
| 20260506203540 | 6 | 76 | 4.8 | 9.7 | 0.00 | 0.00 | 0.00 | 84 | 1013.1 |
| 20260506203041 | 6 | 55 | 1.6 | 6.4 | 0.00 | 0.00 | 0.00 | 84 | 1013.0 |
| 20260506202539 | 6 | 32 | 1.6 | 8.0 | 0.00 | 0.00 | 0.00 | 84 | 1013.0 |
| 20260506202042 | 7 | 42 | 3.2 | 14.5 | 0.00 | 0.00 | 0.00 | 84 | 1013.0 |
| 20260506201540 | 7 | 48 | 4.8 | 14.5 | 0.00 | 0.00 | 0.00 | 83 | 1013.0 |
| 20260506201040 | 7 | 42 | 1.6 | 9.7 | 0.00 | 0.00 | 0.00 | 83 | 1013.0 |
| 20260506200538 | 7 | 40 | 3.2 | 9.7 | 0.00 | 0.00 | 0.00 | 82 | 1012.9 |
| 20260506200038 | 7 | 51 | 3.2 | 9.7 | 0.00 | 0.00 | 0.00 | 82 | 1012.9 |
| 20260506195537 | 7 | 60 | 3.2 | 12.9 | 0.00 | 0.00 | 0.00 | 82 | 1012.9 |
| 20260506195038 | 7 | 59 | 4.8 | 12.9 | 0.00 | 0.00 | 0.00 | 81 | 1012.8 |
| 20260506194540 | 7 | 54 | 3.2 | 11.3 | 0.00 | 0.00 | 0.00 | 80 | 1012.8 |
| 20260506194035 | 7 | 32 | 3.2 | 14.5 | 0.00 | 0.00 | 0.00 | 80 | 1012.7 |
| 20260506193535 | 7 | 45 | 4.8 | 16.1 | 0.00 | 0.00 | 0.00 | 80 | 1012.6 |
| 20260506193045 | 8 | 53 | 8.0 | 16.1 | 0.00 | 0.00 | 0.00 | 79 | 1012.4 |
| 20260506192534 | 8 | 53 | 3.2 | 17.7 | 0.00 | 0.00 | 0.00 | 79 | 1012.5 |
| 20260506192035 | 8 | 49 | 8.0 | 16.1 | 0.00 | 0.00 | 0.00 | 78 | 1012.5 |
| 20260506191534 | 8 | 59 | 6.4 | 16.1 | 0.00 | 0.00 | 0.00 | 76 | 1012.5 |
| 20260506191033 | 8 | 16 | 6.4 | 16.1 | 0.00 | 0.00 | 0.00 | 76 | 1012.5 |
| 20260506190534 | 9 | 71 | 4.8 | 16.1 | 0.00 | 0.00 | 0.00 | 75 | 1012.4 |
| 20260506190033 | 9 | 72 | 6.4 | 14.5 | 0.00 | 0.00 | 0.00 | 75 | 1012.4 |
| 20260506185533 | 9 | 54 | 4.8 | 12.9 | 0.00 | 0.00 | 0.00 | 74 | 1012.4 |
| 20260506185034 | 9 | 27 | 4.8 | 16.1 | 0.00 | 0.00 | 0.00 | 74 | 1012.5 |
| 20260506184537 | 9 | 24 | 3.2 | 16.1 | 0.00 | 0.00 | 0.00 | 73 | 1012.5 |
| 20260506184033 | 9 | 77 | 3.2 | 14.5 | 0.00 | 0.00 | 0.00 | 72 | 1012.4 |
| 20260506183533 | 9 | 53 | 4.8 | 14.5 | 0.00 | 0.00 | 0.00 | 72 | 1012.4 |
| 20260506183033 | 9 | 67 | 4.8 | 12.9 | 0.00 | 0.00 | 0.00 | 72 | 1012.4 |
| 20260506182531 | 10 | 74 | 3.2 | 14.5 | 0.00 | 0.00 | 0.00 | 72 | 1012.3 |
| 20260506182031 | 10 | 73 | 6.4 | 14.5 | 0.00 | 0.00 | 0.00 | 71 | 1012.3 |
| 20260506181541 | 10 | 51 | 6.4 | 14.5 | 0.00 | 0.00 | 0.00 | 69 | 1012.2 |
| 20260506181031 | 10 | 72 | 8.0 | 14.5 | 0.00 | 0.00 | 0.00 | 68 | 1012.1 |
| 20260506180531 | 10 | 58 | 6.4 | 16.1 | 0.00 | 0.00 | 0.00 | 68 | 1012.1 |
| 20260506180032 | 10 | 61 | 6.4 | 14.5 | 0.00 | 0.00 | 0.00 | 68 | 1012.1 |
| 20260506175531 | 10 | 36 | 3.2 | 17.7 | 0.00 | 0.00 | 0.00 | 68 | 1012.0 |
| 20260506175030 | 10 | 46 | 4.8 | 17.7 | 0.00 | 0.00 | 0.00 | 68 | 1012.0 |
| 20260506174535 | 10 | 53 | 6.4 | 14.5 | 0.00 | 0.00 | 0.00 | 68 | 1011.9 |
| 20260506174035 | 10 | 62 | 4.8 | 14.5 | 0.00 | 0.00 | 0.00 | 68 | 1011.9 |
| 20260506173532 | 10 | 59 | 6.4 | 14.5 | 0.00 | 0.00 | 0.00 | 68 | 1011.9 |
| 20260506173050 | 10 | 51 | 3.2 | 11.3 | 0.00 | 0.00 | 0.00 | 68 | 1011.9 |
| 20260506172529 | 10 | 66 | 6.4 | 16.1 | 0.00 | 0.00 | 0.00 | 67 | 1011.8 |
| 20260506172029 | 10 | 51 | 6.4 | 16.1 | 0.00 | 0.00 | 0.00 | 66 | 1011.8 |
| 20260506171538 | 10 | 53 | 6.4 | 16.1 | 0.00 | 0.00 | 0.00 | 66 | 1011.8 |
| 20260506171029 | 10 | 59 | 6.4 | 12.9 | 0.00 | 0.00 | 0.00 | 66 | 1011.8 |
| 20260506170530 | 10 | 22 | 4.8 | 16.1 | 0.00 | 0.00 | 0.00 | 66 | 1011.7 |
| 20260506170042 | 11 | 47 | 8.0 | 12.9 | 0.00 | 0.00 | 0.00 | 65 | 1011.7 |
| 20260506165529 | 11 | 39 | 4.8 | 17.7 | 0.00 | 0.00 | 0.00 | 63 | 1011.7 |
| 20260506165030 | 11 | 61 | 6.4 | 14.5 | 0.00 | 0.00 | 0.00 | 60 | 1011.7 |
| 20260506164528 | 11 | 33 | 6.4 | 17.7 | 0.00 | 0.00 | 0.00 | 60 | 1011.7 |
| 20260506164028 | 11 | 63 | 6.4 | 17.7 | 0.00 | 0.00 | 0.00 | 59 | 1011.7 |
| 20260506163528 | 11 | 68 | 6.4 | 16.1 | 0.00 | 0.00 | 0.00 | 59 | 1011.6 |
| 20260506163033 | 11 | 67 | 6.4 | 20.9 | 0.00 | 0.00 | 0.00 | 58 | 1011.5 |
| 20260506162527 | 12 | 69 | 6.4 | 20.9 | 0.00 | 0.00 | 0.00 | 55 | 1011.5 |
| 20260506162028 | 12 | 156 | 1.6 | 11.3 | 0.00 | 0.00 | 0.00 | 53 | 1011.4 |
| 20260506161528 | 12 | 31 | 3.2 | 12.9 | 0.00 | 0.00 | 0.00 | 53 | 1011.4 |
| 20260506161027 | 12 | 47 | 1.6 | 9.7 | 0.00 | 0.00 | 0.00 | 52 | 1011.3 |
| 20260506160526 | 12 | 67 | 1.6 | 6.4 | 0.00 | 0.00 | 0.00 | 52 | 1011.4 |
| 20260506160028 | 12 | 52 | 0.0 | 12.9 | 0.00 | 0.00 | 0.00 | 54 | 1011.4 |
| 20260506155527 | 12 | 355 | 4.8 | 12.9 | 0.00 | 0.00 | 0.00 | 52 | 1011.5 |
| 20260506155025 | 12 | 71 | 1.6 | 9.7 | 0.00 | 0.00 | 0.00 | 53 | 1011.5 |
| 20260506154526 | 12 | 194 | 1.6 | 14.5 | 0.00 | 0.00 | 0.00 | 55 | 1011.5 |
| 20260506154027 | 12 | 104 | 0.0 | 11.3 | 0.00 | 0.00 | 0.00 | 56 | 1011.5 |
| 20260506153526 | 11 | 92 | 1.6 | 11.3 | 0.00 | 0.00 | 0.00 | 55 | 1011.6 |
| 20260506153026 | 11 | 64 | 1.6 | 9.7 | 0.00 | 0.00 | 0.00 | 57 | 1011.7 |
| 20260506152524 | 11 | 46 | 3.2 | 9.7 | 0.00 | 0.00 | 0.00 | 57 | 1011.7 |
| 20260506152024 | 11 | 82 | 3.2 | 12.9 | 0.00 | 0.00 | 0.00 | 59 | 1011.6 |
| 20260506151524 | 11 | 48 | 3.2 | 12.9 | 0.00 | 0.00 | 0.00 | 58 | 1011.7 |
| 20260506151024 | 11 | 88 | 4.8 | 12.9 | 0.00 | 0.00 | 0.00 | 59 | 1011.7 |
| 20260506150524 | 11 | 69 | 3.2 | 17.7 | 0.00 | 0.00 | 0.00 | 59 | 1011.7 |
| 20260506150024 | 11 | 65 | 3.2 | 19.3 | 0.00 | 0.00 | 0.00 | 58 | 1011.7 |
| 20260506145526 | 11 | 80 | 8.0 | 19.3 | 0.00 | 0.00 | 0.00 | 58 | 1011.7 |
| 20260506145024 | 12 | 52 | 3.2 | 12.9 | 0.00 | 0.00 | 0.00 | 58 | 1011.8 |
| 20260506144523 | 12 | 93 | 1.6 | 12.9 | 0.00 | 0.00 | 0.00 | 58 | 1011.7 |
| 20260506144026 | 12 | 92 | 0.0 | 14.5 | 0.00 | 0.00 | 0.00 | 57 | 1011.8 |
| 20260506143524 | 12 | 38 | 1.6 | 9.7 | 0.00 | 0.00 | 0.00 | 56 | 1011.7 |
| 20260506143027 | 12 | 109 | 0.0 | 14.5 | 0.00 | 0.00 | 0.00 | 56 | 1011.7 |
| 20260506142522 | 12 | 44 | 3.2 | 14.5 | 0.00 | 0.00 | 0.00 | 56 | 1011.7 |
| 20260506142022 | 11 | 66 | 1.6 | 16.1 | 0.00 | 0.00 | 0.00 | 58 | 1011.7 |
| 20260506141522 | 11 | 67 | 6.4 | 16.1 | 0.00 | 0.00 | 0.00 | 58 | 1011.8 |
| 20260506141022 | 11 | 38 | 1.6 | 9.7 | 0.00 | 0.00 | 0.00 | 58 | 1011.7 |
| 20260506140523 | 12 | 200 | 1.6 | 11.3 | 0.00 | 0.00 | 0.00 | 57 | 1011.8 |
| 20260506140023 | 12 | 76 | 3.2 | 11.3 | 0.00 | 0.00 | 0.00 | 57 | 1011.8 |
| 20260506135523 | 12 | 46 | 4.8 | 9.7 | 0.00 | 0.00 | 0.00 | 58 | 1011.7 |
| 20260506135023 | 12 | 147 | 1.6 | 8.0 | 0.00 | 0.00 | 0.00 | 59 | 1011.7 |
| 20260506134523 | 12 | 265 | 0.0 | 9.7 | 0.00 | 0.00 | 0.00 | 57 | 1011.7 |
| 20260506134123 | 12 | 310 | 1.6 | 14.5 | 0.00 | 0.00 | 0.00 | 58 | 1011.8 |
| 20260506133522 | 11 | 86 | 1.6 | 14.5 | 0.00 | 0.00 | 0.00 | 61 | 1011.8 |
| 20260506133023 | 11 | 71 | 3.2 | 14.5 | 0.00 | 0.00 | 0.00 | 61 | 1011.9 |